Starlink 2396

operational
NORAD ID: 47815 Int'l Des: 2021-018 Owner: SPXS Country: US Constellation: starlink
LEOCIRCULAR

Starlink 2396について

説明を読み込み中...

リアルタイム位置

3D地球を読み込み中...

次回通過

高度履歴

Altitude vs Time

uPlot chart will show altitude changes over time

軌道要素

1 47815U 21018AE 26072.43996222 -.00001161 00000-0 -27075-4 0 9997
2 47815 53.1597 225.2728 0001888 93.4977 266.6240 15.30189792277297
Epoch: Mar 13, 2026 • Age: 21 hours

現在のステータス

高度 478.9 km
速度 7.63 km/s
衛星直下点 -12.87°S, 70.67°W
打ち上げ日 Mar 11, 2021
運用期間 5 years
タイプ internet

技術仕様

分類 Payload
質量 260.00 kg
乾燥質量 248.00 kg
総質量 260.00 kg
長さ 0.20 m
直径 2.80 m
スパン 9.00 m
形状 Box + pan
製造者 SPXS
バスタイプ Starlink
フェーズステータス In Orbit
所有者/国 SPXS/US

大規模コンステレーション

Loading constellations...